Regional Weather Roundup
Issued by NWS

Home | Current Version | Previous Version | Text Only | Print | Product List | Glossary Off
Versions: 1 2 3 4 5 6 7 8 9 10 11 12 13 14 15 16 17 18 19 20 21 22 23 24 25 26 27 28 29 30 31 32 33 34 35 36 37 38 39 40 41 42 43 44 45 46 47 48 49 50

024
ASUS45 KTFX 281210
RWRMT
MONTANA REGIONAL WEATHER ROUNDUP
NATIONAL WEATHER SERVICE GREAT FALLS MT
600 AM MDT SUN AUG 28 2016

NOTE: "FAIR" INDICATES FEW OR NO CLOUDS BELOW 12000 FEET WITH NO
SIGNIFICANT WEATHER AND/OR OBSTRUCTIONS TO VISIBILITY.

MTZ001>007-043-281300-
WEST OF THE DIVIDE

CITY           SKY/WX    TMP DP  RH WIND       PRES   REMARKS
KALISPELL      CLEAR     60  42  51 E7        29.92R
MISSOULA       PTCLDY    64  44  48 VRB6      29.99R
BUTTE          CLEAR     49  33  54 NE5       30.08R
MULLAN PASS    CLEAR     48  35  60 VRB7      30.07R
DEER LODGE       N/A     55  39  54 W3        30.05R
EUREKA           N/A     50  45  81 CALM      29.93R
HAMILTON         N/A     61  39  44 S9        29.99R
LIBBY            N/A     54  37  54 CALM      29.92R
RONAN            N/A     65  45  48 SW6       30.01R
$$

MTZ008-052>055-281300-
SOUTHWEST MONTANA

CITY           SKY/WX    TMP DP  RH WIND       PRES   REMARKS
BOZEMAN        CLEAR     45  36  70 SE8       30.02R
DILLON         CLEAR     55  28  35 S10       30.06R
W YELLOWSTONE  CLOUDY    32  21  64 CALM      30.21R HAZE
ENNIS          MOCLDY    57  27  30 S15       30.12R
THREE FORKS      N/A     48  27  44 CALM      30.00R
TWIN BRIDGES     N/A     52  29  41 E5        30.03R
$$

MTZ009-010-012-014-046-048-049-054-281300-
EAST SLOPES AND CENTRAL MONTANA

CITY           SKY/WX    TMP DP  RH WIND       PRES   REMARKS
CUT BANK       PTCLDY    47  44  90 N12       29.94R
GREAT FALLS    CLOUDY    68  40  35 SW13      29.90R
MALMSTROM AFB  MOCLDY    69  40  34 W7        29.91R
HELENA         MOCLDY    68  39  34 W6        29.97S
CHOTEAU          N/A     59  39  47 NE3       29.95R
$$

MTZ011-013-016-021-045-047-050-051-281300-
NORTH CENTRAL MONTANA

CITY           SKY/WX    TMP DP  RH WIND       PRES   REMARKS
HAVRE          MOCLDY    61  50  67 W8        29.85R
LEWISTOWN      CLOUDY    63  43  48 S7        29.96R
N BAR RANCH      N/A     57  39  51 CALM      29.98R
CHINOOK          N/A     61  48  63 W7        29.84R
$$

MTZ017>020-022>027-061-062-281300-
NORTHEAST MONTANA

CITY           SKY/WX    TMP DP  RH WIND       PRES   REMARKS
GLASGOW        CLOUDY    60  44  55 E7        29.78R
JORDAN           N/A     56  41  57 W3        29.83R
SIDNEY         CLEAR     50  46  86 S6        29.83R
WOLF POINT     PTCLDY    57  45  64 NE3       29.79S
POPLAR           N/A     64  43  45 SE3       29.79F
$$

MTZ028>42-056>058-281300-
SOUTHCENTRAL AND SOUTHEAST MONTANA

CITY           SKY/WX    TMP DP  RH WIND       PRES   REMARKS
BAKER          CLEAR     51  48  89 E5        29.91R
BILLINGS       PTCLDY    66  34  30 SW17      29.93R
LIVINGSTON     CLOUDY    58  31  35 W10G25    30.01R
MILES CITY     CLOUDY    59  45  59 SE8       29.86R
FORSYTH          N/A     57  41  54 CALM      29.86S
LAUREL           N/A     55  36  49 CALM      29.94R
ROUNDUP          N/A     58  37  45 S9        29.85R
$$

REGIONAL REPORTS...DAKOTAS

CITY           SKY/WX    TMP DP  RH WIND       PRES   REMARKS
WILLISTON      CLEAR     60  49  66 SE3       29.83R
MINOT          CLEAR     62  50  64 S3        29.85S
DICKINSON      CLEAR     54  50  86 CALM      29.88R
CROSBY           N/A     59  50  72 S12       29.83S
WATFORD CITY     N/A     57  52  82 SE6       29.85S
BISMARCK       CLEAR     57  56  96 NE6       29.89S
GRAND FORKS    CLEAR     58  56  93 SE7       29.98S
FARGO          CLEAR     63  60  90 SE8       30.00R
BUFFALO SD       N/A     56  54  93 NW5       29.85R
RAPID CITY     CLEAR     50  47  89 CALM      29.93S
$$

REGIONAL REPORTS...WYOMING/IDAHO/WASHINGTON

CITY           SKY/WX    TMP DP  RH WIND       PRES   REMARKS
GILLETTE       CLEAR     45  35  68 CALM      29.99R
SHERIDAN       CLEAR     48  38  68 CALM      29.96R
BUFFALO WY     CLOUDY    62  27  26 NW9       30.03R
CODY           CLEAR     64  27  24 W3        30.06R
YELLOWSTONE LA   N/A     33  28  81 W3        30.29S
IDAHO FALLS    CLEAR     54  35  48 SE5       30.10R
SALMON         CLEAR     50  36  57 CALM      30.04R
BOISE          CLEAR     60  36  40 S3        30.01R
SPOKANE        PTCLDY    56  44  64 SW13      29.95R
$$

REGIONAL REPORTS...ALBERTA

CITY           SKY/WX    TMP DP  RH WIND       PRES   REMARKS
EDMONTON       CLOUDY    45  43  93 NW14G28   29.90R
CALGARY        MOCLDY    46  39  76 NW15      29.97R
LETHBRIDGE     MOCLDY    48  46  93 W13       29.95R
MEDICINE HAT   CLEAR     50  48  93 S3        29.90R
WATERTON GATE    N/A     39  37  93 NE5         N/A
MILK RIVER       N/A     46  46 100 NW6         N/A
$$

REGIONAL REPORTS...SASKATCHEWAN

CITY           SKY/WX    TMP DP  RH WIND       PRES   REMARKS
SWIFT CURRENT  MOCLDY    57  54  88 W15       29.83R
REGINA         MOCLDY    59  48  67 SE9       29.75R
SASKATOON      PTCLDY    57  55  94 W9        29.72R
CYPRESS HILLS    N/A     50  46  87 NW12G23     N/A
VAL MARIE        N/A     57  50  77 SE2         N/A
ROCKGLEN         N/A     64  43  45 W10         N/A
ASSINIBOIA       N/A     50  46  87 W16G24      N/A
$$




USA.gov is the U.S. government's official web portal to all federal, state and local government web resources and services.